Flag for Malaysia

Past Weather in Kuala Lumpur, Malaysia — Yesterday and Last 2 Weeks

Now
79 °F

Passing clouds.


Feels Like: 82 °F
Forecast: 89 / 75 °F
Wind: 3 mph from North

Location: Sultan Abdul Aziz Shah-Subang

Current Time: Jul 10, 2020 at 12:24:14 pm

Latest Report: Jul 10, 2020 at 11:00 am


Visibility: N/A

Pressure: 29.86 "Hg

Humidity: 89%

Dew Point: 75 °F

Location of Kuala LumpurLocation

Past Weather in Kuala Lumpur — Graph

°F

Kuala Lumpur Temperature Yesterday

Maximum temperature yesterday: 84 °F (at 12:00 pm)
Minimum temperature yesterday: 75 °F (at 4:00 am)
Average temperature yesterday: 79 °F

High & Low Weather Summary for the Past Weeks

 TemperatureHumidityPressure
High95 °F (Jul 5, 2:00 pm)100% (Jun 26, 5:00 am)29.89 "Hg (Jun 26, 5:00 am)
Low73 °F (Jun 26, 5:00 am)47% (Jul 5, 2:00 pm)29.68 "Hg (Jul 5, 4:00 pm)
Average83 °F78%29.79 "Hg
* Reported Jun 25 11:00 am — Jul 10 11:00 am, Kuala Lumpur. Weather by CustomWeather, © 2020

Note: Actual official high and low records may vary slightly from our data, if they occured in-between our weather recording intervals... More about our weather records

Kuala Lumpur Weather History for the Previous 24 Hours

Scroll right to see more
 ConditionsComfort  
Time TempWeatherWind HumidityBarometerVisibility
11:00 am
Fri, Jul 10
79 °FPassing clouds.3 mph89%29.86 "HgN/A
10:00 am79 °FPassing clouds.6 mph89%29.89 "HgN/A
9:00 am77 °FPassing clouds.6 mph94%29.89 "HgN/A
8:00 am77 °FPassing clouds.3 mph89%29.86 "HgN/A
7:00 am77 °FPassing clouds.6 mph89%29.86 "HgN/A
6:00 am77 °FPassing clouds.2 mph94%29.83 "Hg6 mi
5:00 am77 °FPassing clouds.No wind89%29.80 "Hg6 mi
4:00 am77 °FPassing clouds.2 mph89%29.80 "Hg6 mi
3:00 am79 °FPassing clouds.5 mph84%29.83 "Hg6 mi
2:00 am79 °FPassing clouds.3 mph89%29.83 "Hg6 mi
1:00 am79 °FPassing clouds.1 mph89%29.83 "Hg6 mi
12:00 am79 °FPassing clouds.No wind89%29.83 "Hg6 mi
11:00 pm
Thu, Jul 9
79 °FPassing clouds.1 mph89%29.83 "HgN/A
10:00 pm79 °FPassing clouds.No wind89%29.83 "HgN/A
9:00 pm81 °FPassing clouds.No wind84%29.80 "HgN/A
8:00 pm82 °FPassing clouds.2 mph74%29.77 "HgN/A
7:00 pm82 °FPassing clouds.2 mph74%29.74 "HgN/A
6:00 pm84 °FPassing clouds.3 mph70%29.74 "HgN/A
5:00 pm84 °FPassing clouds.5 mph70%29.74 "HgN/A
4:00 pm81 °FPassing clouds.3 mph84%29.74 "HgN/A
3:00 pm77 °FLight rain. Passing clouds.3 mph94%29.77 "HgN/A
2:00 pm79 °FLight rain. Scattered clouds.13 mph89%29.83 "Hg5 mi
1:00 pm84 °FPassing clouds.6 mph74%29.83 "HgN/A
12:00 pm84 °FPassing clouds.7 mph74%29.86 "HgN/A
Weather by CustomWeather, © 2020

See weather overview